Regional Weather Roundup
Issued by NWS

Home | Current Version | Previous Version | Graphics & Text | Print | Product List | Glossary On
Versions: 1 2 3 4 5 6 7 8 9 10 11 12 13 14 15 16 17 18 19 20 21 22 23 24 25 26 27 28 29 30 31 32 33 34 35 36 37 38 39 40 41 42 43 44 45 46 47 48 49 50
000
ASUS43 KLMK 282202
RWRKY
KENTUCKY REGIONAL WEATHER ROUNDUP
NATIONAL WEATHER SERVICE LOUISVILLE KY
600 PM EDT FRI APR 28 2017

NOTE "FAIR" INDICATES FEW OR NO CLOUDS BELOW 12,000 FEET
WITH NO SIGNIFICANT WEATHER AND/OR OBSTRUCTIONS TO VISIBILITY.

KYZ001>023-026-027-061>063-070>075-282300-
WESTERN AND SOUTH CENTRAL KENTUCKY

CITY           SKY/WX    TMP DP  RH WIND       PRES   REMARKS
PADUCAH        CLOUDY    77  67  71 S10G18    29.77S
HENDERSON      CLOUDY    73  67  81 S16       29.80R
OWENSBORO      CLOUDY    74  68  81 S15       29.80S
HOPKINSVILLE   SUNNY     78  69  75 S8        29.82R
BOWLING GREEN  CLOUDY    78  68  71 S16       29.86S
GLASGOW        NOT AVBL
$$

KYZ024-025-028>034-038-045-046-053-282300-
NORTH CENTRAL KENTUCKY

CITY           SKY/WX    TMP DP  RH WIND       PRES   REMARKS
LOUISVILLE/SDF LGT RAIN  78  63  59 S12       29.83S
LOUISVILLE/LOU CLOUDY    79  62  56 S9        29.83F
FORT KNOX      LGT RAIN  74  64  70 S9        29.83S
$$

KYZ035>037-039>044-047>052-055>060-089>105-282300-
NORTHEAST KENTUCKY

CITY           SKY/WX    TMP DP  RH WIND       PRES   REMARKS
LEXINGTON      CLOUDY    78  59  51 S7        29.90F
COVINGTON      CLOUDY    72  57  59 E10       29.88F
FRANKFORT      PTSUNNY   77  59  53 E10       29.85F
$$

KYZ054-064>069-076>088-106>120-282300-
SOUTHEAST KENTUCKY

CITY           SKY/WX    TMP DP  RH WIND       PRES   REMARKS
JACKSON        PTSUNNY   81  56  42 VRB3      29.93F
LONDON         MOSUNNY   80  57  45 S8        29.95S
SOMERSET       CLOUDY    77  59  53 S5        29.94S
MIDDLESBORO    SUNNY     80  63  56 S6        29.97R
MONTICELLO     CLOUDY    80  64  58 VRB6G20   29.95S
$$




USA.gov is the U.S. government's official web portal to all federal, state and local government web resources and services.